SL-14 DEB, 45297

Orbit data source: Space-Track

SL-14 DEB, 45297 is space debris in LEO originally from a launch on Thu, 15 Aug 1991 UTC launched from the Plesetsk Missile And Space Complex (PKMTR). Debris objects in space refer to the collection of defunct objects orbiting the Earth. Examples of debris include non-operational satellites, rocket bodies, and fragments generated from explosions, collisions, or faulty payload assembly.

Loading next visibility...
SL-14 DEB details
Identifier
45297, 1991-056AK
Orbit
LEO
Last TLE update20 hours ago
Origin
Flag of CISRosgidromet (CIS)
ManufacturerUnknown
MissionSpacecraft
Bus & MotorUnknown
MassUnknown
Launch date (UTC)
1991-08-15 (33 years ago)
Launch vehicleUnknown
Launch site
Plesetsk Missile And Space Complex (PKMTR)
Object type
Payload
Rocket body
Debris
Shape & HBRUnknown
Radar Cross SectionSmall (<0.1 m²)

Expand to show TLE details & history

TLE from 20 hours ago
0 SL-14 DEB
1 45297U 91056AK  24360.61454100  .00010725  00000-0  27623-1 0  9990
2 45297  82.6029 192.8066 0127475 289.4388  69.2995 13.14704320230275
Epoch: 2024-12-25T14:44Z
Definitive object data (Epoch: 2024-12-25T14:44:56.342Z)
Latitude-0.00002°
Longitude-123.03392°
Altitude1,174.731 km
Speed7.282 km/s
True Right ascension12h 51m 13s
True Declination0° 00' 00"
Sunlit
Object was in daylight at TLE epoch
Visualization TLE readout
Latitude-47.50882°
Longitude-131.71802°
Altitude1,135.329 km
Speed7.326 km/s
Apparent Right ascension16h 53m 23s
Apparent Declination-72° 40' 36"
Sunlit
Object is in daylight
Visualization observer readout
Local Sidereal Time09:57:15
Azimuth157.16° SSE
Elevation-41.908°
Doppler factor1
Orbital elements
Apogee altitude1,298.892 km
Perigee altitude1,105.629 km
Semi-major axis7,580.398 km
Eccentricity0.0127475
Inclination82.6029°
RAAN192.8066°
Arg. of periapsis289.4388°
True anomaly70.67356°
Mean anomaly69.2995°
Eccentric anomaly69.98577°
Mean motion3.28856 °/min
BSTAR0.027623
Orbital period109.47 mins
Loading maneuver chart data...
Loading historical data...
Loading historical data...
Loading historical data...
Loading historical data...
Loading historical data...
Loading historical data...
Loading historical data...

SL-14 DEB Visibility forecast

Observer location: undefined°, undefined

Span
Click to sort rows by Start time (UTC) header in descending order
Start Az.
Max El. time (UTC)
Max El. Az.
Max El.
End time (UTC)
End Az.
12 mins2024-12-26 12:46:03.050Z147.154° SSE2024-12-26 12:52:03.050Z88.167° E30.332°2024-12-26 12:58:03.050Z27.403° NE
12 mins2024-12-26 14:37:03.050Z222.125° SW2024-12-26 14:42:03.050Z278.464° WNW33.788°2024-12-26 14:49:03.050Z352.98° N
13 mins2024-12-27 00:14:03.050Z5.676° NNE2024-12-27 00:20:03.050Z71.757° E38.09°2024-12-27 00:27:03.050Z150.673° SSE
11 mins2024-12-27 02:05:03.050Z326.274° NNW2024-12-27 02:10:03.050Z278.339° WNW26.777°2024-12-27 02:16:03.050Z221.24° SW
|